Stations météo

réclame
Mon MeteoGroup
Gela, Italie (16453): Température de l'air & dewpoint: 11.12.2017 08:00:00 - 17.12.2017 08:00:00 (CET)Gela, Italie (16453): Vitesse du vent: 11.12.2017 08:00:00 - 17.12.2017 08:00:00 (CET)Gela, Italie (16453): Direction du vent: 11.12.2017 08:00:00 - 17.12.2017 08:00:00 (CET)Gela, Italie (16453): reduced air pressure: 11.12.2017 08:00:00 - 17.12.2017 08:00:00 (CET)Gela, Italie (16453): visibility: 11.12.2017 08:00:00 - 17.12.2017 08:00:00 (CET)Gela, Italie (16453): Ensoleillement: 11.12.2017 08:00:00 - 17.12.2017 08:00:00 (CET)
Date & Time tt [°C] td [°C] ff [km/h] ff [knt] dd ppp [hPa] vv [km] sd [min]
17.12.2017 08:00:00 - - - - - - - -
17.12.2017 07:00:00 - - - - - - - -
17.12.2017 06:00:00 - - - - - - - -
17.12.2017 05:00:00 - - - - - - - -
17.12.2017 04:00:00 - - - - - - - -
17.12.2017 03:00:00 - - - - - - - -
17.12.2017 02:00:00 - - - - - - - -
17.12.2017 01:00:00 - - - - - - - -
17.12.2017 00:00:00 - - - - - - - -
16.12.2017 23:00:00 - - - - - - - -
16.12.2017 22:00:00 - - - - - - - -
16.12.2017 21:00:00 - - - - - - - -
16.12.2017 20:00:00 - - - - - - - -
16.12.2017 19:00:00 15,0 11,2 11 6 WNW 1009,5 10 -
16.12.2017 18:00:00 15,0 12,0 11 6 W - 10 -
16.12.2017 17:00:00 15,0 11,0 9 5 WNW - 8 -
16.12.2017 16:00:00 15,0 11,2 13 7 W 1008,6 8 0
16.12.2017 15:00:00 15,0 12,0 15 8 W - 8 -
16.12.2017 14:00:00 15,0 12,0 8 4 SW - 6 -
16.12.2017 13:00:00 15,0 12,0 5 3 SSW 1008,6 6 6
16.12.2017 12:00:00 15,0 12,0 0 0 N - 8 -
16.12.2017 11:00:00 15,0 12,0 4 2 ENE - 6 -
16.12.2017 10:00:00 14,2 11,2 4 2 ENE 1009,3 5 0
16.12.2017 09:00:00 14,0 11,0 5 3 NE - 5 -
16.12.2017 08:00:00 14,0 11,0 5 3 NE - 8 -
16.12.2017 07:00:00 14,0 11,2 9 5 ENE 1008,8 10 0
16.12.2017 06:00:00 - - - - - - - -
16.12.2017 05:00:00 - - - - - - - -
16.12.2017 04:00:00 - - - - - - - -
16.12.2017 03:00:00 - - - - - - - -
16.12.2017 02:00:00 - - - - - - - -
16.12.2017 01:00:00 - - - - - - - -
16.12.2017 00:00:00 - - - - - - - -
15.12.2017 23:00:00 - - - - - - - -
15.12.2017 22:00:00 - - - - - - - -
15.12.2017 21:00:00 - - - - - - - -
15.12.2017 20:00:00 - - - - - - - -
15.12.2017 19:00:00 15,6 10,8 8 4 SW 1011,2 10 0
15.12.2017 18:00:00 16,0 11,0 9 5 SW - 10 -
15.12.2017 17:00:00 16,0 11,0 9 5 SSW - 10 -
15.12.2017 16:00:00 16,8 11,3 13 7 SW 1011,3 18 60
15.12.2017 15:00:00 17,0 12,0 9 5 SW - 10 -
15.12.2017 14:00:00 17,0 12,0 13 7 SW - 10 -
15.12.2017 13:00:00 17,0 11,5 5 3 SSW 1013,7 15 -
15.12.2017 12:00:00 17,0 12,0 5 3 S - 10 -
15.12.2017 11:00:00 16,0 12,0 4 2 E - 10 -
15.12.2017 10:00:00 13,6 10,2 4 2 ENE 1016,0 15 60
15.12.2017 09:00:00 13,0 10,0 9 5 E - 10 -
15.12.2017 08:00:00 13,0 9,0 9 5 ENE - 10 -
15.12.2017 07:00:00 12,6 8,9 11 6 ENE 1016,4 10 0
15.12.2017 06:00:00 - - - - - - - -
15.12.2017 05:00:00 - - - - - - - -
15.12.2017 04:00:00 - - - - - - - -
15.12.2017 03:00:00 - - - - - - - -
15.12.2017 02:00:00 - - - - - - - -
15.12.2017 01:00:00 - - - - - - - -
15.12.2017 00:00:00 - - - - - - - -
14.12.2017 23:00:00 - - - - - - - -
14.12.2017 22:00:00 - - - - - - - -
14.12.2017 21:00:00 - - - - - - - -
14.12.2017 20:00:00 - - - - - - - -
14.12.2017 19:00:00 14,2 8,2 8 4 WNW 1020,3 12 0
14.12.2017 18:00:00 15,0 9,0 11 6 WNW - 10 -
14.12.2017 17:00:00 15,0 9,0 13 7 WNW - 10 -
14.12.2017 16:00:00 15,8 9,9 24 13 W 1020,2 14 48
14.12.2017 15:00:00 16,0 10,0 28 15 W - 10 -
14.12.2017 14:00:00 16,0 10,0 16 9 W - 10 -
14.12.2017 13:00:00 16,2 8,9 16 9 W 1021,3 16 60
14.12.2017 12:00:00 15,0 9,0 18 10 W - 10 -
14.12.2017 11:00:00 15,0 9,0 5 3 WSW - 10 -
14.12.2017 10:00:00 14,0 8,8 4 2 WNW 1023,0 16 60
14.12.2017 09:00:00 13,0 8,0 4 2 N - 10 -
14.12.2017 08:00:00 12,0 8,0 5 3 N - 10 -
14.12.2017 07:00:00 12,6 8,1 4 2 N 1022,1 14 0
14.12.2017 06:00:00 - - - - - - - -
14.12.2017 05:00:00 - - - - - - - -
14.12.2017 04:00:00 - - - - - - - -
14.12.2017 03:00:00 - - - - - - - -
14.12.2017 02:00:00 - - - - - - - -
14.12.2017 01:00:00 - - - - - - - -
14.12.2017 00:00:00 - - - - - - - -
13.12.2017 23:00:00 - - - - - - - -
13.12.2017 22:00:00 - - - - - - - -
13.12.2017 21:00:00 - - - - - - - -
13.12.2017 20:00:00 - - - - - - - -
13.12.2017 19:00:00 16,0 10,7 13 7 WNW 1021,6 6 0
13.12.2017 18:00:00 17,0 13,0 9 5 WNW - 6 -
13.12.2017 17:00:00 17,0 14,0 13 7 WNW - 6 -
13.12.2017 16:00:00 17,4 13,5 15 8 W 1020,8 6 24
13.12.2017 15:00:00 18,0 14,0 8 4 W - 10 -
13.12.2017 14:00:00 18,0 14,0 9 5 SW - 10 -
13.12.2017 13:00:00 17,8 13,7 5 3 SW 1021,1 10 42
13.12.2017 12:00:00 17,0 13,0 5 3 SW - 10 -
13.12.2017 11:00:00 17,0 13,0 4 2 SSW - 10 -
13.12.2017 10:00:00 15,8 12,5 5 3 E 1022,5 10 60
13.12.2017 09:00:00 15,0 12,0 9 5 E - 10 -
13.12.2017 08:00:00 15,0 12,0 5 3 ENE - 10 -
13.12.2017 07:00:00 14,8 11,6 9 5 E 1021,8 10 0
13.12.2017 06:00:00 - - - - - - - -
13.12.2017 05:00:00 - - - - - - - -
13.12.2017 04:00:00 - - - - - - - -
13.12.2017 03:00:00 - - - - - - - -
13.12.2017 02:00:00 - - - - - - - -
13.12.2017 01:00:00 - - - - - - - -
13.12.2017 00:00:00 - - - - - - - -
12.12.2017 23:00:00 - - - - - - - -
12.12.2017 22:00:00 - - - - - - - -
12.12.2017 21:00:00 - - - - - - - -
12.12.2017 20:00:00 - - - - - - - -
12.12.2017 19:00:00 16,8 12,1 5 3 SE 1020,5 13 0
12.12.2017 18:00:00 17,0 12,0 5 3 SSE - 10 -
12.12.2017 17:00:00 18,0 12,0 5 3 S - 10 -
12.12.2017 16:00:00 18,0 12,5 8 4 SSW 1018,9 18 60
12.12.2017 15:00:00 18,0 12,0 8 4 SW - 10 -
12.12.2017 14:00:00 18,0 13,0 11 6 WSW - 10 -
12.12.2017 13:00:00 17,8 13,1 13 7 SW 1018,7 16 60
12.12.2017 12:00:00 18,0 13,0 11 6 SW - 10 -
12.12.2017 11:00:00 17,0 13,0 9 5 SSW - 10 -
12.12.2017 10:00:00 16,6 12,8 4 2 ENE 1019,1 14 60
12.12.2017 09:00:00 15,0 11,0 8 4 ENE - 10 -
12.12.2017 08:00:00 15,0 11,0 9 5 E - 10 -
12.12.2017 07:00:00 15,0 11,0 8 4 E 1017,8 10 0
12.12.2017 06:00:00 - - - - - - - -
12.12.2017 05:00:00 - - - - - - - -
12.12.2017 04:00:00 - - - - - - - -
12.12.2017 03:00:00 - - - - - - - -
12.12.2017 02:00:00 - - - - - - - -
12.12.2017 01:00:00 - - - - - - - -
12.12.2017 00:00:00 - - - - - - - -
11.12.2017 23:00:00 - - - - - - - -
11.12.2017 22:00:00 - - - - - - - -
11.12.2017 21:00:00 - - - - - - - -
11.12.2017 20:00:00 - - - - - - - -
11.12.2017 19:00:00 16,6 11,3 16 9 SSW 1017,4 10 0
11.12.2017 18:00:00 16,0 11,0 18 10 SW - 10 -
11.12.2017 17:00:00 16,0 11,0 18 10 SW - 10 -
11.12.2017 16:00:00 17,0 11,5 24 13 SW 1016,4 15 60
11.12.2017 15:00:00 17,0 12,0 28 15 SW - 10 -
11.12.2017 14:00:00 17,0 12,0 22 12 SW - 10 -
11.12.2017 13:00:00 17,0 11,3 24 13 SW 1017,0 11 60
11.12.2017 12:00:00 17,0 11,0 26 14 SW - 10 -
11.12.2017 11:00:00 17,0 11,0 26 14 SW - 10 -
11.12.2017 10:00:00 16,4 10,5 24 13 SW 1018,1 12 60
11.12.2017 09:00:00 15,0 9,0 5 3 SW - 10 -
11.12.2017 08:00:00 13,0 7,0 9 5 SSW - 10 -

tt = Température de l'air
td = dewpoint
ff = Vitesse du vent
dd = Direction du vent
ppp = reduced air pressure
vv = visibility
sd = Ensoleillement

stations d'obs. à proximité